Location: Arpaise
(41.0333°N, 14.7333°E)
Time: 21:53:17
(UTC+00:00)

Cosmos 846 Rocket - Pass Details

Date: 23 January 2021
Orbit: 948 x 991 km, 82.9° (Epoch: 06 March)

Event Time Altitude Azimuth Distance (km) Brightness Sun altitude
Rises 17:55:09 0° 179° (S) 3,667 8.6 -20.3°
Reaches altitude 10° 17:57:40 10° 177° (S) 2,717 7.9 -20.8°
Maximum altitude 18:03:52 72° 94° (E) 1,020 5.3 -21.9°
Drops below altitude 10° 18:10:01 10° 12° (NNE) 2,705 7.6 -23.1°
Sets 18:12:31 0° 10° (N) 3,650 8.4 -23.5°
